Location: Park Creek Village Mobile Home Park
(38.2885°N, 122.4714°W)
Time: 00:02:19
(UTC+00:00)

STARLINK 1039 - Pass Details

Date: 14 December 2019
Orbit: 548 x 551 km, 53.0° (Epoch: 24 January)

Event Time Altitude Azimuth Distance (km) Brightness Sun altitude
Exits shadow 13:16:31 46° 200° (SSW) 789 4.3 -23.2°
Drops below altitude 10° 13:20:10 10° 152° (SSE) 1,908 6.9 -22.5°
Sets 13:22:29 0° 147° (SSE) 2,804 7.9 -22.1°
